Location: Huntsville
(41.2590°N, 111.7678°W)
Time: 09:53:10
(UTC+00:00)

Courier 1B Rocket - Pass Details

Date: 18 June 2021
Orbit: 920 x 1202 km, 28.2° (Epoch: 29 July)

Event Time Altitude Azimuth Distance (km) Brightness Sun altitude
Enters shadow 07:24:43 - 254° (WSW) 3,603 7.8 -25.3°
Rises 07:24:50 0° 254° (WSW) 3,568 - -25.3°
Reaches altitude 10° 07:28:42 10° 231° (SW) 2,605 - -25.3°
Maximum altitude 07:31:57 15° 199° (SSW) 2,282 - -25.3°
Drops below altitude 10° 07:35:12 10° 167° (SSE) 2,607 - -25.3°
Sets 07:39:06 0° 145° (SE) 3,571 - -25.3°
